Theta_e
352 357 363 363 363 363 363 363 362 363 363 363 363 363 362 360 361 362 362 362 362 362 359 356 356 356 356 355 356 355 356 355 354 353 354 353 353 353 351 348 350 347 349
355 356 362 362 362 363 363 362 362 362 361 362 362 362 361 361 362 362 362 361 361 359 356 354 354 355 354 355 356 356 355 355 355 353 353 352 352 352 349 348 348 347 348
355 356 358 362 362 362 362 361 361 360 361 361 361 361 361 361 362 362 361 361 360 357 354 353 353 354 354 354 354 355 355 356 357 355 350 348 349 354 348 349 348 347 347
356 356 358 362 361 362 361 360 360 360 360 360 360 361 361 361 361 361 361 360 358 357 353 352 354 354 354 353 353 354 355 355 354 354 351 347 346 350 349 349 349 348 345
355 357 357 361 361 361 360 360 359 359 359 359 360 361 361 361 360 360 361 360 358 356 352 352 353 355 355 354 354 354 355 355 353 350 346 346 348 348 350 350 350 349 347
354 356 360 361 361 361 360 360 359 359 359 359 359 360 360 359 359 359 360 359 357 354 352 353 355 355 355 354 354 353 353 353 348 336 333 334 340 349 353 351 351 351 349
352 355 358 361 361 360 360 359 359 358 359 359 359 359 359 359 359 358 358 357 356 355 353 352 353 354 355 354 353 352 351 348 340 332 332 335 344 349 356 353 353 351 350
352 356 356 360 360 360 360 359 358 357 358 359 359 359 359 359 359 358 358 356 355 354 354 353 354 354 353 353 352 351 350 347 337 332 330 331 343 350 354 355 356 355 350
353 354 354 356 358 360 359 358 358 357 357 358 358 358 359 358 358 358 358 357 355 354 354 353 353 352 352 351 350 348 347 345 335 331 329 330 336 350 354 356 357 356 353
350 351 351 353 354 355 355 359 358 357 357 357 357 357 358 357 358 358 355 355 355 354 353 353 352 350 348 348 347 346 346 345 337 333 332 331 338 343 352 357 358 357 356
348 347 348 348 350 351 352 356 358 358 358 357 357 357 354 352 353 354 354 353 356 355 353 352 350 348 348 346 345 345 345 336 333 332 330 333 339 341 353 357 358 357 356
344 346 349 349 349 349 352 351 352 354 354 354 353 353 351 349 349 351 352 354 354 355 354 352 351 350 348 338 333 338 338 336 334 332 331 336 341 341 348 357 357 358 357
344 346 349 349 350 349 349 350 351 351 352 351 351 351 349 348 349 350 348 348 350 350 349 347 345 344 340 337 334 331 329 328 331 333 332 340 343 343 347 352 355 356 356
343 345 347 349 349 349 350 351 350 350 352 351 352 349 347 346 346 347 347 347 346 346 345 344 341 340 338 337 334 333 331 328 327 329 331 340 344 346 347 351 357 357 355
342 344 344 348 348 349 347 351 349 348 350 349 350 352 350 345 344 345 345 345 345 345 344 342 341 339 336 335 334 333 331 330 328 328 330 338 344 346 348 352 355 357 356
343 344 345 345 347 347 346 348 349 349 349 348 349 350 349 348 345 344 344 344 343 343 344 343 340 339 336 334 333 331 330 329 329 328 328 331 342 345 348 353 354 356 358
332 340 343 343 345 344 345 346 347 347 349 350 349 350 350 349 346 345 343 342 344 344 342 341 340 337 334 333 332 332 331 329 328 328 329 333 337 345 348 352 355 356 358
318 326 332 345 341 340 341 345 345 346 347 347 348 349 349 350 349 346 344 343 345 344 342 340 339 336 335 334 333 331 331 331 331 331 331 334 338 341 345 351 353 354 356
321 330 334 338 339 339 340 343 343 344 343 343 345 345 347 349 350 349 348 347 346 342 340 340 340 338 338 335 332 333 332 331 331 332 333 336 340 343 345 345 348 350 352
322 328 336 337 338 338 341 341 344 342 341 341 341 342 343 344 346 349 349 348 345 341 339 338 338 338 336 337 335 333 331 331 332 333 333 335 339 344 346 347 346 348 349
317 323 329 329 331 332 327 325 329 336 339 343 345 346 346 343 343 342 342 343 343 340 342 338 337 335 336 335 331 332 332 331 332 333 335 336 338 340 345 346 345 346 346
316 320 320 323 321 319 319 318 319 324 326 327 331 332 337 341 342 341 340 339 340 340 340 340 339 338 337 334 331 330 326 332 329 331 334 335 337 339 340 344 346 345 346
314 316 316 316 317 318 321 318 316 315 316 317 319 322 326 331 334 337 338 339 339 338 338 339 339 337 335 338 334 330 323 321 327 330 332 333 335 336 338 340 341 343 344
314 314 315 315 315 317 318 315 313 311 311 313 315 318 321 324 326 329 330 330 333 336 336 337 340 339 337 330 336 334 334 332 327 324 326 329 333 333 337 337 339 341 343
310 310 311 312 315 316 315 314 313 313 313 315 316 317 318 321 324 326 327 327 326 326 332 336 337 338 338 334 332 333 333 330 330 326 323 327 331 334 336 335 337 340 341
306 308 312 314 314 314 315 315 314 314 313 313 314 315 317 319 322 325 326 324 325 325 325 327 330 334 335 335 335 335 332 330 326 325 324 326 326 330 332 336 337 338 341
Wind_Speed
8 10 15 16 17 17 15 14 17 17 17 18 19 19 18 18 17 16 15 14 13 12 12 11 11 11 12 13 13 13 12 12 11 10 9 7 7 8 5 7 8 7 7
15 11 17 15 17 18 17 16 15 17 17 18 18 18 18 17 17 15 14 13 12 13 12 11 11 11 12 13 13 12 12 10 9 8 7 6 5 8 9 8 8 6 7
15 11 13 15 16 18 19 18 17 15 15 16 17 18 17 17 16 15 14 13 13 12 12 12 12 12 12 13 13 12 11 9 7 7 7 3 2 9 8 9 8 8 7
14 10 10 16 15 16 19 19 19 18 16 15 15 16 16 15 15 14 13 12 13 12 12 12 12 12 12 12 12 11 9 9 7 6 3 4 4 7 8 9 9 8 8
12 12 11 16 16 15 18 19 19 18 18 17 16 15 15 14 13 12 11 11 12 11 11 11 11 10 10 10 9 8 8 7 6 4 3 4 4 6 9 9 8 8 8
13 9 14 16 16 15 16 17 18 17 17 17 16 15 14 13 11 10 9 9 10 11 11 11 10 9 9 9 8 7 6 5 4 3 3 5 6 8 10 10 9 8 8
13 9 11 16 16 16 15 16 17 17 16 16 16 15 14 12 11 10 9 9 9 9 10 10 9 8 7 8 8 8 6 5 3 3 4 4 5 10 11 10 9 9 10
12 10 10 16 17 16 16 16 16 17 16 15 15 14 13 12 12 10 10 9 8 8 8 9 8 8 8 8 8 7 7 7 5 4 4 3 4 10 12 12 10 10 10
9 10 8 9 14 17 16 15 15 15 15 15 14 14 14 14 13 12 11 11 11 10 9 9 8 8 8 8 8 8 8 8 5 4 5 3 7 11 13 12 12 12 12
6 6 7 8 9 10 10 16 16 16 15 14 14 14 13 12 11 10 9 8 9 9 9 10 10 10 10 10 10 9 9 10 4 4 4 4 8 9 14 13 13 13 13
5 5 5 5 4 5 5 9 12 15 14 14 12 12 9 4 5 6 6 8 8 8 8 8 8 9 9 10 10 10 10 2 4 3 3 8 10 11 11 13 13 13 14
10 8 7 6 6 6 5 5 5 6 5 6 6 6 4 4 3 3 4 6 7 7 7 8 8 8 9 3 3 8 3 4 4 4 4 11 11 12 13 13 14 14 14
11 9 9 6 5 6 5 4 3 2 3 3 4 5 4 4 4 4 3 3 3 5 3 3 4 3 2 2 3 3 4 4 3 4 7 12 12 13 14 15 15 14 14
8 8 7 8 8 7 4 5 5 4 4 4 4 5 4 3 4 4 4 4 4 4 6 5 3 4 4 4 4 6 6 4 4 4 7 14 14 14 14 15 13 15 15
8 8 9 10 9 8 6 6 5 5 5 4 5 5 5 4 5 4 4 4 4 3 4 4 4 5 5 5 5 6 6 6 6 5 4 13 13 13 16 16 17 17 15
12 10 9 12 11 9 8 7 6 5 5 4 4 5 9 5 3 3 2 3 3 4 4 6 6 6 6 5 7 7 9 8 8 8 7 7 13 13 16 18 19 19 16
10 7 10 9 10 10 8 6 6 5 5 6 7 8 6 6 5 4 4 5 5 4 6 5 5 4 5 5 8 6 5 8 9 9 8 6 8 11 14 15 16 18 18
6 9 8 9 10 9 9 7 6 6 6 6 6 6 9 9 9 6 5 6 6 5 5 5 6 6 7 6 7 6 7 7 9 9 9 8 6 7 8 13 15 18 16
8 8 8 9 12 12 10 8 7 8 6 6 6 6 7 8 9 8 7 7 7 6 6 6 6 7 7 6 7 6 7 7 9 8 10 9 9 9 6 10 14 16 15
5 6 7 7 9 8 6 5 5 6 5 4 5 5 5 3 4 5 4 5 4 4 5 5 9 6 7 7 7 8 7 7 8 8 11 9 10 9 9 9 7 8 15
5 8 10 10 8 9 5 4 3 3 2 2 3 5 6 5 5 5 4 5 4 5 8 7 7 8 7 3 4 9 8 10 10 10 8 9 10 10 8 8 7 6 8
10 9 7 7 9 7 4 3 3 4 2 3 3 3 4 4 3 3 4 3 4 4 6 7 8 7 6 5 4 2 7 5 6 9 7 8 12 8 9 10 9 10 10
11 10 9 7 7 4 5 5 4 4 4 2 0 2 3 4 3 2 3 3 3 3 5 6 7 9 8 4 9 5 3 5 3 2 6 7 9 7 8 9 10 11 10
10 7 8 8 8 6 7 5 5 4 4 4 4 3 3 2 4 5 5 3 4 3 5 6 6 8 8 9 4 8 10 7 6 8 2 3 4 6 6 6 7 9 10
6 4 4 3 5 5 5 5 5 4 3 3 2 3 3 4 6 5 4 3 2 3 4 6 8 8 7 8 8 7 7 6 9 10 11 8 3 5 5 4 5 6 9
7 6 5 5 4 6 6 7 9 9 7 4 4 4 4 4 4 5 5 5 4 4 4 5 6 8 8 9 9 9 8 6 4 6 8 10 9 4 1 2 3 6 7
Wind_Direction
165 159 153 148 145 138 130 123 118 117 118 119 120 122 126 130 132 136 138 136 133 134 135 134 132 125 117 114 116 118 119 120 128 134 126 124 129 145 151 130 132 131 131
139 156 153 150 145 136 133 129 119 118 119 121 121 122 126 130 134 139 141 138 139 144 142 139 136 129 126 126 127 127 126 129 135 135 132 126 126 143 141 147 146 147 146
139 149 154 149 147 141 138 132 127 120 119 120 124 128 132 135 139 143 143 143 148 149 146 147 146 143 140 137 135 135 137 139 142 146 142 138 133 172 161 157 157 155 156
142 145 149 147 147 146 138 136 134 131 127 125 128 133 136 138 142 146 147 149 154 156 155 155 155 153 151 149 148 147 144 146 155 167 164 176 195 186 181 169 170 167 167
144 149 156 150 146 150 142 140 137 135 135 136 138 140 141 143 146 149 149 153 160 159 160 162 162 160 160 156 149 152 156 162 173 200 212 222 219 206 200 186 181 182 180
149 151 157 153 146 151 146 142 139 138 139 139 140 141 144 146 144 144 149 159 166 167 170 171 171 171 168 165 164 168 170 181 202 221 242 243 230 213 205 202 193 198 196
153 154 154 158 150 152 154 149 146 145 146 144 145 148 149 147 148 154 161 168 172 174 179 182 182 182 185 183 185 185 190 205 216 247 259 281 207 201 202 206 211 212 208
150 158 162 165 158 159 159 158 155 153 152 151 152 155 155 157 162 168 172 177 181 185 191 195 196 198 203 205 209 209 210 216 235 238 249 260 211 206 207 205 211 211 216
155 158 164 170 167 165 165 161 161 160 159 160 162 164 166 171 176 181 185 184 186 191 197 205 212 221 225 228 231 233 236 235 225 237 247 237 233 218 218 214 216 213 213
149 165 179 178 172 167 169 168 168 168 168 168 169 171 175 181 187 190 195 204 209 208 212 215 212 214 222 230 237 240 244 250 252 257 261 262 259 257 227 220 215 217 216
173 178 182 182 170 153 153 176 174 175 176 175 175 177 171 169 182 198 208 221 229 229 231 238 249 252 254 251 248 249 255 262 271 273 277 285 283 277 246 229 223 219 220
198 197 185 177 168 149 166 165 163 176 174 172 170 169 163 153 162 182 228 248 260 263 260 255 252 259 270 303 319 312 316 318 301 280 270 272 265 270 262 238 231 225 222
199 195 188 163 153 159 169 150 149 144 153 155 159 157 151 156 174 173 175 196 210 240 253 283 293 277 286 327 305 301 290 288 276 275 274 269 261 256 259 254 241 230 225
185 194 168 166 164 172 159 167 157 161 165 176 174 161 160 174 185 202 209 217 209 202 204 207 212 258 253 219 231 262 266 265 252 261 272 275 270 268 264 260 241 229 221
201 188 182 171 181 182 172 170 157 157 168 165 168 185 196 208 209 198 211 205 209 206 227 227 226 233 232 232 234 238 265 261 270 261 254 265 265 262 263 254 245 235 227
209 201 177 186 184 177 183 174 170 159 152 159 175 195 217 209 214 215 242 243 242 226 225 229 223 228 239 240 239 226 232 233 239 247 257 256 248 247 257 259 249 236 225
211 183 189 180 174 175 178 159 158 155 166 185 199 205 198 198 198 192 211 240 234 227 230 234 248 248 249 242 256 257 249 249 255 255 247 246 257 250 251 256 252 245 227
187 184 177 174 167 162 167 164 164 172 181 191 192 189 200 201 201 198 214 229 229 221 220 230 229 243 251 243 255 241 235 235 249 246 256 253 244 247 249 247 241 246 244
197 165 169 165 171 175 174 168 168 178 190 184 186 194 201 199 199 205 213 229 214 217 209 226 237 228 248 242 245 245 244 244 244 255 252 249 242 250 239 244 239 246 247
190 173 155 164 169 159 156 157 174 189 207 185 199 206 215 199 214 219 234 237 215 222 230 219 235 233 237 249 255 259 244 241 246 238 248 250 252 241 238 239 241 249 240
185 174 179 167 175 156 154 144 128 178 158 138 157 189 206 203 210 208 223 231 227 229 242 214 228 237 259 235 281 268 257 240 236 236 238 244 244 240 236 230 228 234 246
189 192 167 172 161 162 136 124 130 144 142 137 145 158 180 185 194 192 212 227 229 241 249 245 245 258 250 174 222 245 283 277 238 238 229 235 241 237 233 230 228 230 235
197 189 171 152 141 120 115 107 75 64 55 70 217 201 193 161 179 207 235 236 251 240 262 255 244 243 262 236 203 212 266 238 314 212 227 227 235 229 237 243 239 234 234
205 166 157 154 148 141 148 129 146 153 159 205 179 184 169 196 200 191 190 198 235 245 249 258 255 249 250 266 239 221 234 262 275 293 222 253 239 240 240 255 254 250 250
103 80 47 98 128 139 148 153 153 172 195 179 173 186 219 217 216 211 194 199 225 231 248 246 262 259 245 254 256 254 228 220 235 246 270 268 223 230 235 233 250 249 250
87 91 112 145 185 189 186 193 190 190 192 189 208 216 220 227 222 216 209 196 218 240 233 249 244 251 258 254 249 246 237 234 212 222 239 253 267 263 226 218 242 256 254